AirNav   Everest Fuels
 
 1178 users online  

02VA The Greenhouse Airport
Culpeper, Virginia, USA

GOING TO CULPEPER?


FAA INFORMATION EFFECTIVE 16 JULY 2020

Location

FAA Identifier: 02VA
Lat/Long: 38-26-08.4580N 077-51-25.9790W
38-26.140967N 077-51.432983W
38.4356828,-77.8572164
(estimated)
Elevation: 320 ft. / 98 m (estimated)
Variation: 09W (1985)
From city: 7 miles SE of CULPEPER, VA
Time zone: UTC -4 (UTC -5 during Standard Time)
Zip code: 22741

Airport Operations

Airport use: Private use. Permission required prior to landing
Activation date: 04/1983
Control tower: no
ARTCC: WASHINGTON CENTER
FSS: LEESBURG FLIGHT SERVICE STATION
Attendance: UNATNDD
Wind indicator: no
Segmented circle: no

Airport Communications

WX AWOS-3 at CJR (5 nm N): 119.325 (540-727-0523)
WX AWOS-3 at HWY (11 nm NE): 120.350 (540-788-4078)
WX AWOS-3 at OMH (14 nm SW): 118.075 (540-672-0505)
WX AWOS-3 at RMN (19 nm E): 126.325 (540-657-8283)

Nearby radio navigation aids

VOR radial/distance  VOR name  Freq  Var
CSNr184/12.3CASANOVA VORTAC116.3006W
BRVr293/24.5BROOKE VORTAC114.5009W
GVEr035/28.9GORDONSVILLE VORTAC115.6006W
LDNr153/30.0LINDEN VORTAC114.3006W
AMLr219/35.1ARMEL VOR/DME113.5008W

 
NDB name  Hdg/Dist  Freq  Var  ID
NAILR126/2.535110WMSQ -- ... --.-
SHANNON308/21.723710WEZF . --.. ..-.
CAVERNS128/32.924509WLUA .-.. ..- .-
DAVEE258/37.622309WDAA -.. .- .-

Airport Services

Runway Information

Runway 18/36

Dimensions: 3000 x 80 ft. / 914 x 24 m
Surface: turf
RUNWAY 18  RUNWAY 36
Traffic pattern: leftleft
Displaced threshold: no500 ft.
Obstructions: nonepline, marked

Airport Ownership and Management from official FAA records

Ownership: Privately-owned
Owner: JOE VAN WINGERDEN
21513 GERMANNA HWY
STEVENSBURG, VA 22741
Phone 540-399-1919
Manager: JOE VAN WINGERDEN
21513 GERMANNA HWY
STEVENSBURG, VA 22741
Phone 540-399-1919

Airport Operational Statistics

Aircraft based on the field: 1
Single engine airplanes: 1
    

Additional Remarks

FOR CD CTC POTOMAC APCH AT 866-709-4993.

Instrument Procedures

There are no published instrument procedures at 02VA.

Some nearby airports with instrument procedures:

KCJR - Culpeper Regional Airport (5 nm N)
KHWY - Warrenton-Fauquier Airport (11 nm NE)
KOMH - Orange County Airport (14 nm SW)
KRMN - Stafford Regional Airport (19 nm E)
KEZF - Shannon Airport (22 nm SE)
 
Loc | Ops | Rwys | IFR | FBO | Links
Com | Nav | Svcs | Stats | Notes
Area around 02VA (The Greenhouse Airport)
 
Road maps at: MapQuest Bing Google
 
Aerial photo
WARNING: Photo may not be current or correct
Aerial photo of 02VA (The Greenhouse Airport)
Photo taken 09-Jun-2012
looking north.

Do you have a better or more recent aerial photo of The Greenhouse Airport that you would like to share? If so, please send us your photo.

 
Sectional chart

 
Airport distance calculator
Flying to The Greenhouse Airport? Find the distance to fly.

From to 02VA

Sunrise and sunset
Times for 09-Aug-2020
 Local
(UTC-4)
 Zulu
(UTC)
Morning civil twilight05:5409:54
Sunrise06:2210:22
Sunset20:1100:11
Evening civil twilight20:4000:40

Current date and time
Zulu (UTC)  09-Aug-2020 18:10:52
Local (UTC-4)  09-Aug-2020 14:10:52
 
METAR
KHWY 
11nm NE 
091755Z AUTO 00000KT 10SM CLR 32/22 A3012 RMK AO2 T03170217 10320 20237
KCJR 
14nm W 
091755Z AUTO 17003KT 10SM SCT037 SCT043 OVC060 32/22 A3012 RMK AO2 T03150217 10319 20219
KOMH 
14nm SW 
091755Z AUTO 00000KT 10SM BKN035 BKN041 BKN050 31/22 A3012 RMK AO2
KRMN 
19nm E 
091755Z AUTO 14005KT 10SM BKN036 32/23 A3015 RMK AO2 T03190230 10319 20219
KEZF 
22nm SE 
091755Z AUTO 23004KT 10SM SCT050 32/23 A3010 RMK AO2 T03170231 10317 20225
KGVE 
22nm SW 
091755Z AUTO 00000KT 10SM SCT060 SCT070 30/23 A3011 RMK AO1 T03010227 10309 20224
TAF
KNYG 
27nm E 
0915/1015 VRB06KT 9999 SCT080 QNH3007INS FM092330 18007KT 9999 SCT030 BKN050 QNH3005INS TEMPO 1007/1013 VRB05KT 6000 BR BECMG 1013/1015 24006KT 9999 FEW050 QNH3006INS T30/0920Z T24/1010Z
KCHO 
33nm SW 
091743Z 0918/1018 00000KT P6SM VCSH SCT050 FM092100 00000KT 6SM BR FEW250 FM100800 00000KT 3SM BR FEW250 FM101200 00000KT P6SM FEW250 FM101700 17004KT P6SM SCT250
NOTAMs
Click for the latest NOTAMs
NOTAMs are issued by the DoD/FAA and will open in a separate window not controlled by AirNav.

 

 
 

Would you like to see your business listed on this page?

 If your business provides an interesting product or service to pilots, flight crews, aircraft, or users of the The Greenhouse Airport, you should consider listing it here.  To start the listing process, click on the button below
 
Add a business
 

Other Pages about The Greenhouse Airport

Update a link
 
Copyright © AirNav, LLC. All rights reserved. Privacy Policy  Contact